• Join FlightAware (Why Join?)
  • Login
  • US Flag 
11:06PM EST


 

Airport Tracker/Info


-or-


 

Live Flight TrackerFlight Track Log ✈ EJA941 ✈ 18-Jun-2013 ✈ KMKC - KFTY

Flight Track Log - Related Links

Times and Time Zones

All times are in EDT time to prevent confusion due to time zone crossing. See the EJA941 flight status page for this flight to view local times or setup timezone preferences in your user account.

Time Position Orientation Groundspeed Altitude Reporting Facility
EDT Latitude Longitude Course Direction KTS MPH feet Rate Location/Type
08:18AM 39.1722 -94.5692 20° North 201 231 3,500  Level Kansas City Center
08:19AM 39.1897 -94.4825 75° East 252 290 6,200 2,607 Climbing Kansas City Center
08:20AM 39.1642 -94.3881 109° East 296 341 8,800 2,537 Climbing Kansas City Center
08:21AM 39.1328 -94.2719 109° East 309 356 11,400 1,951 Climbing Kansas City Center
08:22AM 39.1022 -94.1583 109° East 351 404 12,800 1,770 Climbing Kansas City Center
08:23AM 39.0872 -94.0342 99° East 364 419 15,000 2,049 Climbing Kansas City Center
08:24AM 39.0783 -93.8853 94° East 377 434 17,000 1,756 Climbing Kansas City Center
08:25AM 39.0700 -93.7514 95° East 391 450 18,600 1,623 Climbing Kansas City Center
08:26AM 39.0594 -93.5894 95° East 408 470 20,300 1,707 Climbing Kansas City Center
08:27AM 39.0508 -93.4478 94° East 413 475 22,100 1,659 Climbing Kansas City Center
08:28AM 39.0411 -93.3006 95° East 422 486 23,700 1,623 Climbing Kansas City Center
08:29AM 39.0294 -93.1478 96° East 430 495 25,400 1,561 Climbing Kansas City Center
08:30AM 39.0186 -92.9892 95° East 442 509 26,900 1,366 Climbing Kansas City Center
08:31AM 38.9639 -92.8236 113° Southeast 472 543 28,200 1,415 Climbing Kansas City Center
08:32AM 38.9003 -92.6728 118° Southeast 477 549 29,800 1,415 Climbing Kansas City Center
08:33AM 38.8344 -92.5175 119° Southeast 485 558 31,100 1,220 Climbing Kansas City Center
08:34AM 38.7669 -92.3567 118° Southeast 500 575 32,300 1,317 Climbing Kansas City Center
08:35AM 38.6836 -92.1594 118° Southeast 515 593 33,800 1,171 Climbing Kansas City Center
08:36AM 38.6106 -91.9903 119° Southeast 530 610 34,700 829 Climbing Kansas City Center
08:37AM 38.5339 -91.8144 119° Southeast 550 633 35,500 1,024 Climbing Kansas City Center
08:38AM 38.4575 -91.6375 119° Southeast 560 644 36,800 1,355 Climbing Kansas City Center
08:40AM 38.3803 -91.4597 119° Southeast 565 650 38,300 1,512 Climbing Kansas City Center
08:41AM 38.3019 -91.2819 119° Southeast 566 651 39,900 1,317 Climbing Kansas City Center
08:42AM 38.2258 -91.1078 119° Southeast 567 652 41,000 537 Climbing Kansas City Center
08:43AM 38.1467 -90.9308 120° Southeast 571 657 41,000  Level Kansas City Center
08:44AM 38.0658 -90.7500 120° Southeast 582 670 41,000  Level Kansas City Center
08:45AM 37.9833 -90.5672 120° Southeast 596 686 41,000  Level Kansas City Center
08:46AM 37.8853 -90.3464 119° Southeast 604 695 41,000 -145 Level Kansas City Center
08:47AM 37.8022 -90.1658 120° Southeast 601 692 40,700 -488 Descending Kansas City Center
08:48AM 37.7192 -89.9806 119° Southeast 606 697 40,000 -488 Descending Kansas City Center
08:49AM 37.6350 -89.7956 120° Southeast 610 702 39,700 -976 Descending Kansas City Center
08:50AM 37.5400 -89.5856 120° Southeast 607 699 38,000 -1,317 Descending Kansas City Center
08:51AM 37.4544 -89.4033 121° Southeast 604 695 37,000 -484 Descending Kansas City Center
08:52AM 37.3686 -89.2200 120° Southeast 604 695 37,000  Level Kansas City Center
08:53AM 37.2831 -89.0353 120° Southeast 606 697 37,000  Level Memphis Center
08:54AM 37.1956 -88.8492 121° Southeast 612 704 37,000  Level Memphis Center
08:55AM 37.1078 -88.6689 121° Southeast 612 704 37,000  Level Memphis Center
08:56AM 37.0219 -88.4836 120° Southeast 617 710 37,000  Level Memphis Center
08:57AM 36.9356 -88.3014 121° Southeast 617 710 37,000  Level Memphis Center
08:58AM 36.8492 -88.1169 120° Southeast 617 710 37,000  Level Memphis Center
08:59AM 36.7542 -87.9383 124° Southeast 628 723 37,000  Level Memphis Center
09:00AM 36.6628 -87.7547 122° Southeast 623 717 37,000  Level Memphis Center
09:01AM 36.5775 -87.5767 121° Southeast 611 703 37,000  Level Memphis Center
09:02AM 36.4900 -87.3964 121° Southeast 617 710 37,000  Level Memphis Center
09:03AM 36.4003 -87.2142 121° Southeast 612 704 37,000  Level Memphis Center
09:04AM 36.3081 -87.0400 123° Southeast 612 704 37,000 -100 Level Memphis Center
09:05AM 36.2194 -86.8531 120° Southeast 618 711 36,800 -650 Descending Memphis Center
09:06AM 36.1247 -86.6772 124° Southeast 624 718 35,700 -1,150 Descending Memphis Center
09:07AM 36.0158 -86.5231 131° Southeast 602 693 34,500 -1,150 Descending Memphis Center
09:08AM 35.9028 -86.3747 133° Southeast 595 685 33,400 -439 Descending Memphis Center
09:10AM 35.6417 -86.0319 133° Southeast 569 655 33,000 -117 Descending Atlanta Center
09:11AM 35.5333 -85.8942 134° Southeast 564 649 33,000 -350 Level Atlanta Center
09:12AM 35.4247 -85.7514 133° Southeast 564 649 32,300 -1,500 Descending Atlanta Center
09:13AM 35.3203 -85.6144 133° Southeast 564 649 30,000 -2,350 Descending Atlanta Center
09:14AM 35.2133 -85.4775 134° Southeast 564 649 27,600 -1,950 Descending Atlanta Center
09:15AM 35.1106 -85.3464 134° Southeast 554 638 26,100 -1,600 Descending Atlanta Center
09:16AM 35.0094 -85.2206 134° Southeast 533 613 24,400 3,450 Descending Atlanta Center
09:17AM 34.8850 -85.1528 156° South 495 570 33,000 -2,500 Climbing Atlanta Center
09:18AM 34.7556 -85.1461 178° South 458 527 19,400 -7,950 Descending Atlanta Center
09:19AM 34.6453 -85.1269 172° South 458 527 17,100 -2,300 Descending Atlanta Center
09:20AM 34.5308 -85.0600 154° Southeast 450 518 14,800 -2,300 Descending Atlanta Center
09:21AM 34.4147 -84.9931 155° Southeast 437 503 12,500 -2,050 Descending Atlanta Center
09:22AM 34.3275 -84.9394 153° Southeast 390 449 10,700 -1,700 Descending Atlanta Center
09:23AM 34.2525 -84.8958 154° Southeast 333 383 9,100 -1,350 Descending Atlanta Center
09:24AM 34.1797 -84.8497 152° Southeast 297 342 8,000 -650 Descending Atlanta Center
09:25AM 34.1322 -84.7617 123° Southeast 292 336 7,800 -850 Descending Atlanta Center
09:26AM 34.0931 -84.6783 120° Southeast 285 328 6,300 -1,400 Descending Atlanta Center
09:27AM 34.0600 -84.6106 120° Southeast 260 299 5,000 -1,150 Descending Atlanta Center
09:28AM 34.0292 -84.5425 119° Southeast 242 278 4,000 -500 Descending Atlanta Center
09:29AM 33.9981 -84.4797 121° Southeast 237 273 4,000  Level Atlanta Center
09:30AM 33.9628 -84.4094 121° Southeast 237 273 4,000  Level Atlanta Center
09:31AM 33.9275 -84.3392 121° Southeast 237 273 4,000  Level Atlanta Center
09:32AM 33.8817 -84.2789 132° Southeast 237 273 4,000 -240 Level Atlanta Center
09:33AM 33.8167 -84.3000 195° South 194 223 3,500 -706 Descending Atlanta TRACON
09:34AM 33.8000 -84.3333 239° Southwest 159 183 2,600 -500 Descending Atlanta TRACON
09:35AM 33.8000 -84.3833 270° West 149 171 2,600 -421 Level Atlanta TRACON
09:36AM 33.8000 -84.4333 270° West 132 152 1,800 -550 Descending Atlanta TRACON
09:37AM 33.7833 -84.4667 239° Southwest 132 152 1,500 -300 Descending Atlanta TRACON
09:39AM 33.7667 -84.5167 320° Northwest  Level FlightAware Approximate
09:46AM 33.7791 -84.5214 320° Northwest  Level Estimated
09:47AM 33.7791 -84.5214 320° Northwest  Level Estimated